EW6266 Weather Reports


time (UTC)temp
F
wind
direction
speed
knots
gust
knots
rain 1hr
in
rain 24hr
in
rain mn
in
humidity
%
barometer
mb
20260509193042 68 235 0.9 6.1 0.00 0.00 0.00 49 1016.0
20260509191539 67 146 1.7 5.2 0.00 0.00 0.00 48 1016.3
20260509190038 67 327 2.6 4.3 0.00 0.00 0.00 51 1016.5
20260509184533 66 224 1.7 4.3 0.00 0.00 0.00 53 1016.5
20260509183031 65 238 2.6 7.0 0.00 0.00 0.00 58 1016.6
20260509181528 65 209 3.5 7.0 0.00 0.00 0.00 58 1016.8
20260509180026 64 202 2.6 8.7 0.00 0.00 0.00 60 1017.0
20260509174523 63 173 3.5 7.0 0.00 0.00 0.00 60 1016.9
20260509173020 62 214 3.5 8.7 0.00 0.00 0.00 63 1016.9
20260509171532 62 215 0.9 6.1 0.00 0.00 0.00 61 1016.9
20260509170025 60 224 0.9 6.1 0.00 0.00 0.00 65 1017.0
20260509164513 60 223 4.3 7.0 0.00 0.00 0.00 66 1017.3
20260509163013 59 227 1.7 6.1 0.00 0.00 0.00 66 1017.2
20260509161506 59 266 3.5 8.7 0.00 0.00 0.00 69 1017.3
20260509160004 58 244 2.6 7.8 0.00 0.00 0.00 70 1017.3
20260509154602 57 220 3.5 7.0 0.00 0.00 0.00 73 1017.4
20260509153100 57 187 2.6 6.1 0.00 0.00 0.00 73 1017.3
20260509151555 55 158 1.7 6.1 0.00 0.00 0.00 76 1017.2
20260509150052 53 155 2.6 6.1 0.00 0.00 0.00 80 1017.3
20260509144544 51 109 3.5 6.1 0.00 0.00 0.00 81 1017.3
20260509143040 49 160 1.7 4.3 0.00 0.00 0.00 85 1017.2
20260509141537 47 111 1.7 3.5 0.00 0.00 0.00 87 1017.1
20260509140032 45 111 2.6 3.5 0.00 0.00 0.00 88 1017.1
20260509134530 43 144 1.7 2.6 0.00 0.00 0.00 88 1017.2
20260509133029 42 257 0.0 0.9 0.00 0.00 0.00 89 1017.1
20260509131539 39 257 0.0 0.0 0.00 0.00 0.00 89 1017.1
20260509130033 38 257 0.0 1.7 0.00 0.00 0.00 90 1017.1
20260509124525 38 258 1.7 3.5 0.00 0.00 0.00 87 1017.0
20260509123024 39 197 0.0 1.7 0.00 0.00 0.00 90 1017.0
20260509121527 39 197 0.0 1.7 0.00 0.00 0.00 88 1016.9
20260509120022 39 192 2.6 3.5 0.00 0.00 0.00 90 1016.7
20260509114526 39 175 0.9 3.5 0.00 0.00 0.00 87 1016.8
20260509113016 40 201 0.0 2.6 0.00 0.00 0.00 87 1016.8
20260509111512 41 201 0.0 0.0 0.00 0.00 0.00 86 1016.9
20260509110012 42 201 0.0 0.9 0.00 0.00 0.00 88 1016.8
20260509104511 42 201 0.0 1.7 0.00 0.00 0.00 89 1016.8
20260509103009 41 201 0.0 1.7 0.00 0.00 0.00 87 1016.7
20260509101506 42 209 1.7 2.6 0.00 0.00 0.00 86 1016.6
20260509100005 43 215 1.7 4.3 0.00 0.00 0.00 85 1016.4
20260509094600 44 119 1.7 3.5 0.00 0.00 0.00 85 1016.5
20260509093100 44 180 0.0 2.6 0.00 0.00 0.00 84 1016.5
20260509091556 46 198 0.9 4.3 0.00 0.00 0.00 81 1016.3
20260509090051 48 269 4.3 8.7 0.00 0.00 0.00 81 1016.2
20260509084551 48 281 5.2 8.7 0.00 0.00 0.00 81 1016.1
20260509083049 48 272 6.1 9.6 0.00 0.00 0.00 80 1016.1
20260509081550 49 254 4.3 9.6 0.00 0.00 0.00 79 1016.1
20260509080045 49 280 7.0 10.4 0.00 0.00 0.00 79 1015.8
20260509074553 49 274 6.1 10.4 0.00 0.00 0.00 78 1016.0
20260509073040 48 271 5.2 8.7 0.00 0.00 0.00 79 1015.8
20260509071537 49 272 5.2 8.7 0.00 0.00 0.00 78 1015.7
20260509070035 49 276 5.2 11.3 0.00 0.00 0.00 78 1015.5
20260509064540 49 288 2.6 6.1 0.00 0.00 0.00 76 1015.5
20260509063030 51 246 4.3 10.4 0.00 0.00 0.00 74 1015.4
20260509061530 51 296 7.8 12.2 0.00 0.00 0.00 72 1015.2
20260509060029 52 268 6.1 12.2 0.00 0.00 0.00 71 1015.4
20260509054528 52 296 7.8 11.3 0.00 0.00 0.00 69 1015.1
20260509053027 53 273 5.2 11.3 0.00 0.00 0.00 68 1015.2
20260509051533 54 273 8.7 13.0 0.00 0.00 0.00 66 1014.9
20260509050023 54 267 7.8 11.3 0.00 0.00 0.00 65 1014.7
20260509044522 54 276 7.8 13.0 0.00 0.00 0.00 64 1014.6
20260509043020 52 254 7.0 9.6 0.00 0.00 0.00 67 1014.4
20260509041518 52 261 2.6 6.1 0.00 0.00 0.00 66 1014.4
20260509040016 53 270 2.6 6.1 0.00 0.00 0.00 64 1014.1
20260509034535 54 258 2.6 7.0 0.00 0.00 0.00 61 1013.7
20260509033013 55 261 3.5 7.0 0.00 0.00 0.00 59 1013.5
20260509031511 55 258 2.6 7.0 0.00 0.00 0.00 58 1013.2
20260509030010 59 248 1.7 7.0 0.00 0.00 0.00 53 1013.1
20260509024508 61 248 5.2 11.3 0.00 0.00 0.00 47 1012.8
20260509023008 62 257 6.1 13.0 0.00 0.00 0.00 45 1012.6
20260509021508 64 258 10.4 16.5 0.00 0.00 0.00 41 1012.5
20260509020005 65 265 8.7 16.5 0.00 0.00 0.00 40 1012.3
20260509014505 66 258 12.2 18.2 0.00 0.00 0.00 38 1012.2
20260509013004 67 258 10.4 19.1 0.00 0.00 0.00 37 1012.2
20260509011502 67 263 12.2 20.0 0.00 0.00 0.00 35 1012.1
20260509010003 68 271 13.0 20.0 0.00 0.00 0.00 36 1011.8
20260509004501 68 266 13.9 20.9 0.00 0.00 0.00 35 1012.0
20260509003002 69 280 12.2 22.6 0.00 0.00 0.00 35 1011.9
20260509001602 69 261 14.8 20.0 0.00 0.00 0.00 31 1011.9
20260509000100 69 253 13.9 20.9 0.00 0.00 0.00 30 1011.7
20260508234606 69 239 13.0 20.0 0.00 0.00 0.00 30 1011.8
20260508233059 69 270 13.9 21.7 0.00 0.00 0.00 28 1012.0
20260508231559 69 265 13.9 22.6 0.00 0.00 0.00 29 1012.0
20260508230058 70 257 13.0 21.7 0.00 0.00 0.00 27 1011.9
20260508224559 69 257 12.2 20.0 0.00 0.00 0.00 25 1012.0
20260508223057 71 267 12.2 18.2 0.00 0.00 0.00 23 1011.9
20260508221557 71 252 13.9 20.9 0.00 0.00 0.00 21 1012.0
20260508220059 71 263 13.9 20.0 0.00 0.00 0.00 21 1012.1
20260508214604 69 275 12.2 21.7 0.00 0.00 0.00 28 1012.1
20260508213052 69 254 15.6 26.1 0.00 0.00 0.00 26 1012.2
20260508211550 66 272 11.3 21.7 0.00 0.00 0.00 38 1012.1
20260508210053 67 272 10.4 20.9 0.00 0.00 0.00 43 1012.1
20260508204550 70 276 15.6 24.3 0.00 0.00 0.00 36 1011.9
20260508203048 67 246 13.9 20.9 0.00 0.00 0.00 41 1011.9
20260508201546 67 236 11.3 18.2 0.00 0.00 0.00 45 1011.9
20260508200045 70 290 9.6 17.4 0.00 0.00 0.00 45 1011.9
20260508194542 68 282 13.0 20.0 0.00 0.00 0.00 44 1011.8